Theta_e
298 299 299 300 300 299 299 299 300 302 305 308 310 312 316 321 335 338 338 334 332 338 344 347 346 345 345 342 340 339 338 338 339 339 338 337 337 337 337 336 336 336 335
297 297 297 297 297 297 296 297 298 299 301 304 306 310 311 315 322 335 338 336 330 333 339 344 345 345 346 343 340 339 338 337 338 339 338 337 336 336 335 336 336 335 334
294 294 294 294 295 295 295 296 296 298 299 301 302 304 307 311 314 320 335 335 333 328 332 338 341 342 343 344 341 339 338 336 337 337 337 337 336 336 335 335 335 335 334
294 293 293 293 294 295 295 295 295 296 296 297 297 299 302 305 310 315 327 335 335 333 329 331 334 338 340 342 343 341 340 337 338 337 336 337 336 336 335 334 334 334 334
293 292 292 292 293 294 296 296 296 296 295 296 296 298 299 301 304 311 315 324 334 334 331 328 328 331 335 339 342 343 342 340 339 339 337 337 337 336 335 334 334 334 333
291 291 291 291 291 291 292 293 293 295 297 296 297 297 298 300 303 309 312 317 324 333 334 334 331 330 328 335 339 342 344 343 341 340 339 338 337 335 334 334 334 334 333
290 290 289 289 289 289 289 291 292 292 293 297 296 296 297 299 302 304 308 314 318 330 333 333 333 332 332 329 334 340 343 344 342 340 338 337 336 334 333 333 333 333 333
289 289 290 287 288 289 289 290 291 291 292 295 293 294 292 297 302 306 309 312 316 328 332 332 332 332 334 333 333 334 339 342 342 340 338 336 335 334 333 333 333 333 333
289 288 289 288 288 289 288 289 290 290 290 293 294 293 292 293 295 304 308 310 312 324 329 331 331 331 332 333 332 331 327 331 337 339 338 336 334 334 333 332 332 333 333
289 288 288 287 287 288 287 288 291 290 290 289 293 296 297 297 293 293 300 302 307 313 320 326 328 330 331 331 329 325 320 319 325 335 337 336 335 333 333 332 332 333 333
287 286 287 286 286 287 287 288 288 289 290 290 291 293 295 296 297 295 292 295 302 305 316 322 327 327 331 331 331 328 318 316 319 328 333 335 335 333 333 332 332 333 333
285 284 285 286 286 285 285 287 288 289 290 292 293 294 293 293 295 296 295 296 298 302 311 315 322 326 329 331 329 323 318 313 315 321 327 331 332 333 332 332 333 333 333
282 282 283 284 284 284 284 286 288 287 288 289 290 291 295 297 298 298 298 297 296 299 302 309 316 324 327 330 330 321 317 313 313 316 320 325 328 329 329 331 332 333 333
281 281 282 284 283 284 283 284 285 285 286 285 287 288 289 292 295 299 299 298 296 298 301 303 312 322 325 325 325 314 326 313 312 313 315 318 322 324 324 326 327 329 330
281 280 281 282 282 282 282 282 282 282 283 283 283 286 286 288 290 291 294 296 299 294 297 303 308 317 324 323 321 324 325 313 309 308 309 312 316 319 320 322 322 324 326
279 279 279 281 280 280 280 281 281 281 281 281 281 282 285 285 287 288 289 291 296 299 297 304 309 316 315 321 321 322 325 314 308 307 306 307 310 313 316 318 319 319 321
279 278 278 280 280 278 279 278 279 279 278 279 280 280 281 284 284 285 286 288 290 295 300 304 312 315 307 310 315 318 319 320 307 304 304 303 305 306 309 310 312 315 317
278 278 278 278 280 277 277 276 276 277 276 276 277 278 279 282 282 283 283 284 286 290 292 303 298 298 295 295 305 306 311 307 305 300 299 300 301 303 305 305 306 308 311
276 276 276 276 277 277 275 274 274 275 275 276 276 276 278 278 279 280 281 281 284 286 288 290 288 288 292 289 296 301 298 300 300 298 297 296 296 297 297 299 301 304 308
274 273 273 274 275 277 276 275 274 274 275 275 276 277 278 278 278 279 280 279 280 282 284 283 283 283 285 287 289 289 294 292 291 294 294 293 293 294 294 294 295 297 302
271 270 270 271 273 277 278 274 273 273 274 274 275 276 277 280 281 280 279 279 278 279 280 280 279 280 280 281 282 286 291 291 288 286 290 290 290 289 290 291 293 294 295
269 270 270 271 271 278 280 279 276 272 273 274 273 274 276 278 277 278 279 279 280 276 276 277 276 276 277 278 282 284 284 287 286 285 288 286 289 286 287 288 289 291 293
275 274 273 274 275 277 280 279 278 273 273 274 274 274 274 276 276 274 276 276 276 279 278 276 274 275 276 278 280 282 283 281 279 281 286 283 286 284 286 288 289 288 288
276 275 275 275 275 278 280 279 278 275 275 275 276 275 275 275 276 275 274 273 272 273 275 276 276 276 278 279 280 281 281 282 281 281 282 279 282 283 285 285 288 289 288
277 275 275 275 274 275 280 279 277 276 275 274 276 276 276 275 277 277 274 272 271 271 275 277 278 278 279 280 280 281 278 278 276 277 281 279 279 281 283 283 285 288 288
278 276 275 273 276 273 279 280 278 276 273 274 273 275 278 276 277 276 273 271 269 269 270 270 271 273 274 275 277 277 278 276 277 275 277 277 278 279 279 283 283 284 285
Wind_Speed
7 7 7 7 7 8 8 10 10 10 11 12 10 10 10 10 11 6 6 14 16 20 22 23 23 24 23 23 23 22 21 21 19 17 15 16 17 18 19 19 19 19 19
7 7 7 7 7 8 8 9 10 10 9 10 12 11 11 10 11 11 8 8 17 19 20 23 26 26 26 25 24 24 23 22 21 19 17 17 18 18 18 19 19 20 19
9 8 7 7 7 7 10 8 9 9 9 9 11 11 10 11 11 11 9 7 7 17 20 19 24 27 28 28 26 26 25 23 23 21 19 18 18 18 19 19 19 21 21
10 9 7 7 9 8 7 8 8 9 9 9 10 9 9 9 11 12 10 8 7 7 13 16 15 26 28 29 28 28 27 26 24 23 22 20 20 19 19 18 19 22 22
11 8 6 8 10 9 8 8 9 11 12 11 11 11 10 9 10 11 12 13 10 9 8 14 22 17 23 28 29 28 29 28 26 25 24 22 22 21 21 20 20 22 22
11 9 7 9 9 9 9 9 11 10 10 12 13 13 12 10 10 8 8 10 11 9 10 11 10 13 18 23 28 30 30 29 29 28 26 25 24 23 22 21 20 22 23
11 11 6 9 9 9 11 11 10 12 9 10 11 12 10 13 12 11 11 10 11 10 10 10 8 7 9 18 24 30 31 31 30 29 27 26 25 24 22 22 22 23 24
11 11 10 11 11 10 11 11 11 9 8 7 8 12 7 5 7 6 8 9 13 8 8 11 11 12 11 11 17 26 29 30 31 30 29 26 25 25 24 24 24 24 25
10 11 12 12 12 10 9 10 10 12 9 8 9 6 5 4 14 4 8 6 9 7 8 9 11 13 13 11 15 19 24 27 29 30 29 28 27 26 26 25 25 27 25
11 11 12 14 13 10 10 10 10 10 10 10 7 6 8 9 6 9 5 14 9 9 10 6 10 13 14 11 14 13 16 18 21 27 29 29 29 28 27 27 26 26 26
10 12 14 13 12 9 11 12 12 11 8 9 8 7 8 8 9 8 13 11 13 9 7 8 8 7 13 13 12 14 19 18 21 25 28 29 29 29 28 28 28 27 27
7 12 15 12 12 12 12 11 12 12 10 9 9 9 9 7 6 7 8 10 12 12 10 10 9 8 8 11 15 21 24 19 19 22 26 29 29 30 29 29 29 29 29
7 11 13 12 11 12 13 12 11 11 11 10 11 8 9 8 9 9 10 9 11 10 11 11 10 9 8 8 11 19 22 21 17 22 21 26 29 29 29 29 30 30 30
7 10 11 11 12 13 12 13 9 9 11 10 13 12 9 9 9 8 9 9 11 10 9 16 9 9 8 6 8 17 15 24 26 26 25 21 25 28 28 28 28 29 29
8 9 10 12 12 12 13 13 9 11 10 10 12 13 11 9 8 8 8 9 10 12 10 9 7 7 7 7 9 7 9 13 17 17 17 18 20 23 27 27 27 28 28
9 9 11 12 12 11 13 13 11 13 12 10 10 15 13 11 11 8 8 8 9 11 13 8 7 4 4 4 5 7 8 12 17 18 17 16 15 16 21 26 28 27 27
9 11 11 12 11 12 12 12 13 14 14 14 14 14 17 16 12 11 10 8 8 9 11 10 7 6 5 9 7 5 5 7 8 10 4 6 12 12 15 18 21 26 27
10 10 10 10 12 11 12 12 12 13 14 15 15 15 16 13 17 15 11 13 9 9 8 11 6 7 9 7 8 11 8 9 9 18 20 5 9 16 16 14 18 21 25
10 10 10 11 10 9 12 11 11 12 13 13 13 14 15 17 18 15 16 14 11 9 8 5 6 6 5 9 5 6 11 9 9 17 16 18 22 18 10 1 8 16 23
6 8 9 9 9 5 10 13 12 13 13 13 14 14 16 16 17 19 15 17 14 10 11 8 8 6 7 6 6 5 7 9 9 10 14 15 16 22 25 21 18 14 14
6 5 6 7 7 7 9 9 11 12 12 14 15 15 17 23 27 24 13 16 17 12 9 12 12 10 9 7 9 6 2 6 10 10 9 11 11 11 14 21 21 26 24
4 5 7 6 6 8 20 21 15 9 11 11 14 15 15 21 20 25 26 28 25 16 14 11 12 14 14 7 8 7 6 3 4 9 7 10 9 11 9 11 25 26 21
4 5 6 9 8 9 21 20 20 8 9 11 11 13 13 13 17 13 19 22 23 30 22 15 14 13 14 14 8 8 10 9 6 6 2 9 9 10 9 11 26 25 25
4 5 7 9 9 11 20 21 19 10 11 12 13 12 14 16 19 16 13 14 15 15 17 12 14 13 13 13 11 8 7 6 7 11 9 6 6 8 8 9 24 24 25
4 5 6 7 10 10 20 20 14 9 10 10 12 13 14 15 26 25 15 15 15 16 17 25 26 27 28 31 25 9 12 7 7 8 11 4 5 3 6 9 10 22 22
6 5 8 8 14 9 18 19 14 7 9 7 8 10 25 20 26 26 15 14 14 13 13 15 16 19 21 21 27 17 12 11 6 5 11 4 7 4 3 5 8 8 6
Wind_Direction
11 3 357 356 355 349 343 335 329 328 329 325 318 311 305 301 280 246 234 226 226 226 231 217 213 206 197 197 197 197 196 197 201 199 196 187 185 181 185 181 178 175 174
12 5 356 353 346 344 332 325 320 316 314 317 314 316 307 300 296 276 248 232 226 226 228 211 207 208 202 201 198 199 200 199 201 202 198 192 188 186 185 185 176 179 179
6 358 346 340 334 327 322 321 320 313 308 310 312 313 312 309 299 295 270 238 222 224 226 215 210 207 204 200 201 200 201 200 201 201 204 195 191 190 189 183 180 182 181
3 356 345 342 332 321 318 326 319 320 315 316 307 299 292 294 301 304 286 255 231 214 224 224 220 212 203 201 200 201 202 202 202 201 202 200 196 192 191 187 181 183 185
359 351 344 345 338 333 330 325 325 318 314 311 304 301 291 287 283 282 281 294 249 217 210 215 223 225 208 200 199 201 204 204 203 203 201 198 196 193 189 188 185 187 188
356 344 355 346 341 333 324 321 317 317 311 308 307 301 288 270 260 257 263 272 280 244 223 217 207 222 222 204 200 201 206 206 204 203 202 199 196 194 192 188 190 191 190
360 345 351 345 339 330 320 315 318 318 312 314 306 305 298 273 247 240 238 248 260 261 231 225 212 209 209 217 217 204 205 206 205 205 204 201 197 194 197 187 190 195 193
2 352 354 341 339 325 321 320 320 313 306 310 317 307 317 331 28 271 239 228 232 244 231 223 216 212 210 205 210 222 208 208 206 205 204 201 198 196 194 190 189 198 196
0 355 348 346 339 328 323 319 317 314 315 312 302 297 315 318 346 306 344 9 342 271 241 219 219 214 214 208 208 216 214 205 209 207 204 199 198 198 197 195 199 200 196
357 356 352 352 335 330 328 323 322 312 305 303 305 276 276 301 298 314 326 324 309 320 308 254 228 214 209 207 204 229 223 210 202 208 207 203 199 200 200 199 199 199 199
358 357 360 350 335 338 330 323 321 316 304 294 291 291 287 277 269 267 292 297 299 290 297 295 256 237 210 200 194 200 226 217 211 203 204 206 203 202 202 201 200 201 201
346 10 357 346 338 346 338 332 323 327 327 314 300 292 271 267 277 276 284 296 294 303 307 299 284 249 231 215 213 204 208 206 210 213 208 203 204 204 204 203 202 202 203
355 6 353 342 341 352 347 338 344 344 340 335 335 320 307 253 263 271 273 273 277 279 285 292 284 257 241 217 217 202 198 195 205 215 214 210 205 204 207 205 205 204 203
3 360 349 343 346 5 355 345 355 352 357 351 349 350 335 339 336 304 278 273 276 275 263 269 278 270 243 221 221 207 201 201 202 209 207 209 206 204 204 205 205 206 205
10 0 351 352 356 5 7 355 5 358 4 3 0 348 352 342 332 317 308 299 280 269 265 263 254 238 240 218 212 204 220 203 213 207 204 207 217 209 205 204 203 205 206
14 5 3 3 2 8 14 9 2 1 5 10 9 360 356 353 347 333 317 299 281 282 259 263 270 283 327 302 267 238 223 207 209 217 208 205 214 226 219 207 205 203 204
16 13 2 6 7 11 11 18 12 6 9 7 10 9 1 357 356 346 333 319 307 302 277 258 250 356 33 5 12 48 43 66 55 31 187 210 227 232 235 225 220 206 203
24 14 3 360 13 18 12 15 17 13 8 4 360 7 8 1 6 356 350 344 324 321 311 241 37 11 43 342 11 48 51 58 46 31 28 354 208 213 244 244 232 216 212
27 13 7 2 353 26 24 16 15 19 13 9 2 2 9 10 11 357 8 355 347 349 343 34 57 8 12 20 349 34 42 47 52 42 44 46 50 54 65 14 276 256 225
27 5 358 350 348 359 39 24 16 18 21 13 11 10 14 16 19 9 9 6 355 0 11 45 54 25 25 354 0 11 49 43 34 26 38 37 41 42 35 31 38 10 260
25 360 350 341 348 19 28 35 13 14 11 18 16 13 15 24 26 24 13 15 14 10 6 32 41 37 25 15 0 341 10 94 57 19 38 30 29 30 26 23 21 29 17
360 356 353 348 359 27 40 37 33 14 15 14 18 15 16 19 18 22 26 24 28 21 27 30 33 31 19 11 1 7 8 6 50 11 20 36 30 41 27 32 28 31 41
33 19 13 14 6 40 37 39 33 17 15 16 22 22 20 19 20 15 19 25 23 28 28 26 28 25 17 8 339 13 49 56 60 357 2 47 28 40 21 30 44 37 37
68 44 31 28 17 28 45 37 33 24 23 20 18 33 25 22 24 20 19 27 26 23 26 28 30 25 27 17 13 18 28 76 64 36 13 61 358 44 22 21 31 39 40
90 61 42 28 28 7 38 45 26 21 21 15 18 18 38 28 30 28 24 26 24 20 16 28 32 32 29 33 31 27 33 25 43 31 22 42 353 335 58 22 21 25 31
105 82 63 39 28 12 21 38 43 23 14 11 11 22 31 38 33 35 30 27 27 12 9 12 16 20 21 22 26 29 25 33 31 35 7 39 354 353 14 21 20 17 25